Raleigh-Durham Airport, NC

4:46 AM EDT on April 26, 2018 (GMT -0400)
Raleigh-Durham International

Weather History for KRDU - December, 2013

Change the Weather History Date:

Thursday, December 5, 2013

  Actual Average Record
Temperature  
Mean Temperature 61 °F 46 °F  
Max Temperature 67 °F 57 °F 76 °F (1982)
Min Temperature 55 °F 36 °F 19 °F (1966)
Degree Days  
Heating Degree Days 4 19  
Month to date heating degree days 68 92  
Since 1 July heating degree days 720 673  
Cooling Degree Days 0 0  
Month to date cooling degree days 0 0  
Year to date cooling degree days 1552 1728  
Growing Degree Days 10 (Base 50)    
Moisture  
Dew Point 59 °F    
Average Humidity 91    
Maximum Humidity 100    
Minimum Humidity 81    
Precipitation  
Precipitation 0.03 in 0.10 in 1.36 in (1993)
Month to date precipitation 0.03 0.51  
Year to date precipitation 44.81 40.78  
Snow  
Snow 0.00 in 0.00 in 1.00 in (1893)
Month to date snowfall 0.0 0.0  
Since 1 July snowfall T 0.1  
Snow Depth 0.00 in    
Sea Level Pressure  
Sea Level Pressure 30.09 in    
Wind  
Wind Speed 7 mph (SW)    
Max Wind Speed 18 mph    
Max Gust Speed 24 mph    
Visibility 5 miles    
Events Fog , Rain    
T = Trace of Precipitation, MM = Missing Value Source: NWS Daily Summary

Daily Weather History Graph

Daily Weather History Graph

Search for Another Location

Airport or City:

Astronomy

Dec. 05, 2013 Rise Set
Actual Time 7:10 AM EST 5:01 PM EST
Civil Twilight 6:42 AM EST 5:29 PM EST
Nautical Twilight 6:10 AM EST 6:01 PM EST
Astronomical Twilight 5:39 AM EST 6:32 PM EST
Moon 9:31 AM EST (12/5) 8:16 PM EST (12/5)
Length of Visible Light 10h 46m
Length of Day
9h 50m
Waxing Crescent, 10% of the Moon is Illuminated
Dec 5
Waxing Crescent
Dec 9
First Quarter
Dec 17
Full
Dec 25
Last Quarter
Jan 1
New

Hourly Weather History & Observations

Time (EST) Temp. Dew Point Humidity Pressure Visibility Wind Dir Wind Speed Gust Speed Precip Events Conditions
12:51 AM 57.0 °F 55.0 °F 93% 30.10 in 5.0 mi South 3.5 mph - N/A   Mostly Cloudy
1:36 AM 55.4 °F 53.6 °F 94% 30.10 in 4.0 mi WSW 3.5 mph - N/A   Scattered Clouds
1:51 AM 55.0 °F 53.1 °F 93% 30.10 in 3.0 mi Calm Calm - N/A   Overcast
1:53 AM 55.4 °F 53.6 °F 94% 30.10 in 2.0 mi WSW 3.5 mph - N/A   Overcast
2:24 AM 55.4 °F 53.6 °F 94% 30.10 in 1.0 mi Calm Calm - N/A   Overcast
2:51 AM 55.9 °F 55.0 °F 97% 30.10 in 1.0 mi SW 4.6 mph - N/A   Overcast
3:51 AM 55.9 °F 55.0 °F 97% 30.10 in 1.0 mi SW 4.6 mph - 0.00 in   Overcast
4:19 AM 55.4 °F 55.4 °F 100% 30.10 in 2.0 mi SW 3.5 mph - N/A   Overcast
4:51 AM 57.0 °F 55.0 °F 93% 30.10 in 3.0 mi Calm Calm - N/A   Overcast
5:31 AM 57.2 °F 55.4 °F 94% 30.10 in 2.0 mi SSW 5.8 mph - N/A   Overcast
5:33 AM 57.2 °F 55.4 °F 94% 30.10 in 1.0 mi SSW 5.8 mph - N/A   Overcast
5:51 AM 57.9 °F 55.9 °F 93% 30.10 in 1.0 mi SW 5.8 mph - N/A   Overcast
6:05 AM 57.2 °F 55.4 °F 94% 30.11 in 0.5 mi SSW 8.1 mph - N/A Fog Fog
6:51 AM 57.0 °F 55.9 °F 96% 30.10 in 0.2 mi SSW 5.8 mph - N/A Fog Fog
7:51 AM 57.0 °F 57.0 °F 100% 30.13 in 0.5 mi SW 4.6 mph - N/A Fog Fog
8:27 AM 57.2 °F 57.2 °F 100% 30.13 in 1.5 mi SW 6.9 mph - 0.00 in Rain Light Rain
8:51 AM 59.0 °F 57.9 °F 96% 30.14 in 1.5 mi SW 9.2 mph - 0.00 in Rain Light Rain
9:51 AM 61.0 °F 60.1 °F 97% 30.15 in 1.5 mi SSW 6.9 mph - 0.03 in   Overcast
10:08 AM 62.6 °F 60.8 °F 94% 30.14 in 4.0 mi SSW 8.1 mph - N/A   Mostly Cloudy
10:51 AM 64.9 °F 62.1 °F 90% 30.13 in 7.0 mi SSW 13.8 mph - N/A   Mostly Cloudy
11:27 AM 64.4 °F 60.8 °F 88% 30.12 in 3.0 mi SW 11.5 mph - 0.00 in Rain Light Rain
11:51 AM 64.0 °F 61.0 °F 90% 30.11 in 7.0 mi SSW 10.4 mph - 0.00 in   Overcast
12:51 PM 66.0 °F 62.1 °F 87% 30.09 in 8.0 mi SW 11.5 mph - N/A   Overcast
1:51 PM 64.9 °F 62.1 °F 90% 30.07 in 6.0 mi SW 11.5 mph - 0.00 in Rain Light Rain
2:51 PM 64.9 °F 61.0 °F 87% 30.06 in 9.0 mi SW 8.1 mph - 0.00 in   Overcast
3:51 PM 66.0 °F 61.0 °F 84% 30.06 in 9.0 mi SSW 8.1 mph - N/A   Overcast
4:19 PM 66.2 °F 60.8 °F 83% 30.07 in 10.0 mi SSW 8.1 mph - N/A   Overcast
4:51 PM 66.0 °F 61.0 °F 84% 30.06 in 10.0 mi SSW 5.8 mph - 0.00 in Rain Light Rain
5:51 PM 66.0 °F 62.1 °F 87% 30.06 in 7.0 mi Calm Calm - 0.00 in Rain Light Rain
6:07 PM 64.4 °F 62.6 °F 94% 30.08 in 8.0 mi Calm Calm - 0.00 in   Overcast
6:51 PM 66.0 °F 62.1 °F 87% 30.08 in 8.0 mi Calm Calm - 0.00 in   Overcast
7:51 PM 66.0 °F 62.1 °F 87% 30.06 in 8.0 mi South 8.1 mph - N/A   Overcast
8:51 PM 66.0 °F 62.1 °F 87% 30.06 in 9.0 mi SSW 12.7 mph - N/A   Overcast
9:51 PM 66.9 °F 62.1 °F 84% 30.06 in 10.0 mi SW 12.7 mph - N/A   Overcast
10:05 PM 66.2 °F 62.6 °F 88% 30.07 in 8.0 mi SW 15.0 mph - 0.00 in   Light Drizzle
10:51 PM 66.0 °F 63.0 °F 90% 30.06 in 10.0 mi SSW 6.9 mph - 0.00 in   Overcast
11:51 PM 66.0 °F 63.0 °F 90% 30.05 in 10.0 mi SSW 8.1 mph - 0.00 in   Overcast